Location: Saint-Allouestre
(47.9167°N, 2.8833°W)
Time: 20:37:40
(UTC+00:00)

Daily predictions for brighter satellites

Satellite Brightness Start Highest point End
(mag) Time Altitude Azimuth Time Altitude Azimuth Time Altitude Azimuth
CSL-04 Rocket 4.0 18:27:39 10° SE 18:32:53 49° ENE 18:38:12 10° N
ATLAS 2AS CENTAUR R/B 4.0 18:27:56 10° SSE 18:33:43 23° ESE 18:39:31 10° ENE
NOSS 2-2 (D) 3.1 18:30:20 10° SW 18:33:50 88° NW 18:37:48 10° NE
Cosmos 1937 Rocket 3.9 18:28:38 10° SSW 18:33:52 70° WNW 18:39:04 10° NNE
Cosmos 1025 Rocket 3.5 18:29:49 10° N 18:33:59 40° ENE 18:38:08 10° SE
Okean 2 Rocket 3.6 18:29:59 10° SSE 18:34:08 38° E 18:38:17 10° NNE
YAOGAN 1 2.6 18:31:05 10° SSE 18:35:21 65° ENE 18:39:40 10° N
ATLAS 3B R/B 3.8 18:30:04 10° NW 18:35:59 30° NNE 18:42:02 10° E
SKYMED 2 3.8 18:33:59 10° N 18:38:21 79° WNW 18:42:41 10° SSW
Abrixas rocket 1.8 18:36:28 10° W 18:39:19 87° S 18:42:09 10° ESE
CREW DRAGON DEMO-1 DEB 2.9 18:38:17 10° WNW 18:41:17 65° NNE 18:44:16 10° ESE
CZ-4B R/B 4.4 18:39:44 10° NNW 18:42:28 22° WNW 18:45:13 10° WSW
Cosmos 1536 Rocket 4.1 18:39:34 10° N 18:43:46 39° ENE 18:47:58 10° SE
Cosmos 1125 Rocket 4.1 18:41:42 10° SSE 18:46:27 34° ESE 18:51:14 10° NE
SJ-6B 4.3 18:48:31 11° ESE 18:50:53 17° ENE 18:53:25 10° NNE
CZ-2D R/B 4.1 18:49:04 10° S 18:52:53 56° W 18:56:44 10° NNW
CZ-4 R/B 1.8 18:48:46 10° S 18:52:57 70° WSW 18:57:07 10° NNW
Cosmos 2150 Rocket 4.2 18:47:59 10° S 18:53:16 58° ESE 18:58:37 10° NNE
USA 238 DEB 3.9 18:46:19 10° NW 18:53:34 89° NE 19:01:05 10° SE
USA 238 3.9 18:46:26 10° NW 18:53:40 88° NE 19:01:12 10° SE
SJ-11-01 4.3 18:49:24 10° SSE 18:54:02 62° ENE 18:58:41 10° N
Cosmos 1464 Rocket 4.0 18:48:58 10° S 18:55:00 65° E 19:01:09 10° NNE
CZ-2C R/B 3.2 18:49:43 10° SSE 18:55:06 79° ENE 19:00:48 10° NNW
Cosmos 1674 3.5 18:52:39 10° N 18:56:09 32° ENE 18:59:36 10° SE
Okean-O 3.4 18:52:28 10° S 18:56:50 57° W 19:01:13 10° NNW
Cosmos 2285 Rocket 4.5 18:51:28 10° SSE 18:57:11 38° E 19:02:58 10° NE
MOS 1 Rocket 3.3 18:59:01 10° NNE 19:03:13 44° E 19:07:19 10° S
FREGAT/IRIS 4.3 19:04:41 14° ENE 19:04:41 14° ENE 19:06:01 10° NNE
In-Cosmos 22 4.1 19:05:05 10° NNW 19:10:25 87° W 19:15:50 10° S
ARGOS 3.2 19:05:25 10° SSE 19:10:43 64° ENE 19:16:04 10° N
Cosmos 1048 Rocket 4.1 19:06:06 10° NNW 19:11:27 84° WSW 19:16:50 10° SSE
CZ-2C R/B 3.4 19:08:26 10° NNE 19:13:25 32° E 19:18:23 10° SSE
Cosmos 1340 Rocket 4.4 19:15:11 16° ENE 19:15:11 16° ENE 19:17:05 10° NE
Cosmos 1733 4.2 19:13:48 15° SE 19:16:05 25° E 19:19:14 10° NE
Cosmos 2151 Rocket 3.5 19:12:16 10° S 19:16:44 76° E 19:21:15 10° NNE
Lacrosse 5 rocket 3.2 19:13:35 10° NW 19:17:13 25° N 19:20:43 11° ENE
HJ-1C 3.5 19:14:19 10° S 19:17:37 75° W 19:20:56 10° NNW
NOSS 3-2 (A) 4.4 19:10:31 10° NW 19:17:59 68° SW 19:26:22 10° SSE
Cosmos 2082 Rocket 3.7 19:14:31 10° N 19:18:40 20° NE 19:21:17 15° ENE
Shenzhou-11 Module 3.9 19:20:31 10° S 19:20:33 10° S 19:20:33 10° S
BREEZE-M DEB (TANK) 3.4 19:18:33 10° W 19:21:27 50° SSW 19:27:36 14° SE
BREEZE-M R/B 4.3 19:09:26 10° WSW 19:22:10 66° SSE 19:24:25 22° E
Cosmos 494 Rocket 4.0 19:18:57 10° NNW 19:24:16 84° ENE 19:29:32 10° SSE
ATLAS 5 CENTAUR R/B 4.4 19:22:47 10° WNW 19:25:57 28° SW 19:33:41 10° SSE
Meteor 1-15 Rocket 4.2 19:21:50 10° S 19:27:25 65° E 19:33:08 10° NNE
Cosmos 1805 3.4 19:24:08 10° SSE 19:27:53 47° E 19:31:39 10° NNE
OBJECT-B 2.3 19:28:48 21° ENE 19:28:48 21° ENE 19:31:02 10° NNE
Milstar 3 Cent rocket 4.4 19:27:42 10° SSW 19:29:54 11° S 19:31:50 10° SSE
Ariane Rocket 3.0 19:28:06 13° SSE 19:32:35 60° ENE 19:37:36 10° N
SL-08 RB Rocket 3.6 19:28:03 10° SSE 19:32:36 71° ENE 19:37:07 10° N
H-2A R/B 2.4 19:29:04 10° S 19:34:01 64° WSW 19:39:09 10° NNW
Cosmos 1269 Rocket 4.1 19:30:54 10° NNW 19:36:11 62° ENE 19:39:33 22° SE
Nadezhda 4 Rocket 4.1 19:31:33 10° N 19:37:41 79° W 19:43:48 10° S
KORONAS-FOTON 3.8 19:33:50 10° N 19:37:47 89° W 19:41:32 11° S
Cosmos 1626 2.5 19:37:57 10° N 19:41:30 43° ENE 19:42:02 40° E
USA 186 1.7 19:42:34 30° SSE 19:44:04 88° E 19:47:23 10° NNW
MetOp-A 4.1 19:40:20 19° SE 19:44:07 61° ENE 19:49:25 10° N
COSMOS 2406 3.4 19:39:41 10° NNW 19:45:17 55° ENE 19:47:55 30° ESE
Cosmos 1844 Rocket 3.0 19:40:32 10° SW 19:46:04 67° WNW 19:51:40 10° NNE
ISS -2.9 19:43:23 10° W 19:46:39 44° N 19:47:46 31° NE
Cosmos 2278 Rocket 3.0 19:45:29 10° SSE 19:51:32 28° E 19:55:16 10° NE
Lacrosse 4 Rocket 2.6 19:49:10 10° NNW 19:52:37 26° NE 19:52:52 25° NE
IRS-1A Rocket 4.3 19:47:47 11° SSE 19:53:24 88° ENE 19:59:16 10° NNW
Cosmos 1844 3.9 19:48:03 10° SW 19:53:44 73° WNW 19:59:23 10° NNE
Meteor 1-22 Rocket 4.4 19:49:33 10° S 19:55:18 57° E 20:01:16 10° NNE
Meteor 2-5 Rocket 3.7 19:50:14 10° N 19:55:57 86° E 20:00:46 15° SSE
Cosmos 2034 Rocket 4.4 19:49:53 10° SSW 19:56:11 66° WNW 20:02:30 10° N
NOSS 3-2 (C) 4.4 19:48:48 10° NW 19:56:15 63° WSW 20:03:38 14° SSE
Exosat Rocket 3.5 19:52:51 10° SSW 19:58:12 83° WNW 20:03:15 10° NNE
Meteor 1-24 Rocket 3.6 19:52:41 10° N 19:58:16 71° ENE 20:01:37 26° SSE
Okean 1 Rocket 3.1 19:55:57 10° S 20:00:27 83° W 20:04:59 10° N
NOSS 3-4 (A) 3.3 19:55:14 10° SSW 20:01:05 69° SE 20:07:21 10° NE
NOSS 3-4 (C) 3.3 19:55:20 10° SSW 20:01:11 68° SE 20:07:28 10° NE
SL-14 R/B 3.2 19:57:33 10° N 20:01:30 66° E 20:01:55 60° ESE
Resurs 01 Rocket 2.2 20:03:26 38° ENE 20:03:26 38° ENE 20:07:27 10° N
Cosmos 1766 3.4 20:05:44 10° SSW 20:09:38 72° W 20:13:37 10° N
Cosmos 1833 Rocket 2.7 20:04:46 10° NNW 20:10:25 63° ENE 20:11:54 46° ESE
Cosmos 2251 Rocket 4.1 20:08:16 10° N 20:13:20 40° ENE 20:13:44 39° ENE
Abrixas rocket 4.0 20:11:55 10° W 20:13:27 22° WSW 20:13:27 22° WSW
CENTAUR R/B 3.8 20:07:07 10° NW 20:14:59 54° WSW 20:22:00 16° S
ARIANE 5 R/B 3.9 20:20:05 27° NE 20:20:05 27° NE 20:22:46 10° N
SPOT 3 Rocket 3.4 20:20:50 55° SE 20:21:56 76° ENE 20:27:06 10° NNW
Cosmos 1634 Rocket 3.9 20:17:35 10° S 20:23:46 85° W 20:30:02 10° N
ATLAS 2AS CENTAUR R/B 2.9 20:15:49 10° SW 20:23:47 84° SE 20:31:42 10° NE
SJ-6B 3.7 20:24:09 34° SW 20:25:13 43° W 20:28:52 10° NNW
Resurs 1-3 3.5 20:26:18 77° S 20:26:36 87° WSW 20:31:02 10° NNW
ATLAS 3B R/B 2.6 20:20:43 10° NW 20:27:37 83° NE 20:29:50 48° SE
Cosmos 1892 Rocket 3.4 20:24:14 10° N 20:28:35 87° WNW 20:28:35 87° WNW
Cosmos 1655 Rocket 4.0 20:30:59 10° N 20:37:13 62° ENE 20:37:49 59° ESE
Cosmos 1340 Rocket 3.9 20:50:42 43° WNW 20:50:42 43° WNW 20:54:24 10° N
CZ-2C R/B 3.8 20:48:33 10° N 20:53:48 44° WNW 20:59:05 10° SW
Lacrosse 5 rocket 2.7 20:52:59 10° NW 20:56:20 38° N 20:56:20 38° N
Cosmos 2180 Rocket 4.4 20:57:17 69° S 20:58:06 87° E 21:04:31 10° N
MetOp-B 4.2 20:58:51 73° N 20:58:51 73° N 21:03:43 10° NNW
Cosmos 2279 Rocket 4.1 20:57:29 35° SSW 21:00:15 74° W 21:06:33 10° N
OBJECT-B 3.6 21:01:59 19° WNW 21:01:59 19° WNW 21:03:26 10° NW
Cosmos 2098 Rocket 3.7 20:54:55 10° N 21:01:42 90° E 21:01:45 88° SSE
Cosmos 2082 Rocket 2.2 20:57:54 10° NNW 21:03:08 77° NNW 21:03:08 77° NNW
Spot 2 Rocket 4.2 21:05:26 46° N 21:05:26 46° N 21:09:04 10° N
Terra 3.8 21:21:44 20° NNE 21:21:44 20° NNE 21:23:27 10° N
ISS -0.3 21:20:29 10° WNW 21:20:44 12° WNW 21:20:44 12° WNW
Lacrosse 4 Rocket 3.7 21:27:35 10° NW 21:29:10 21° NW 21:29:10 21° NW
Cosmos 2278 Rocket 3.0 21:33:01 42° W 21:34:13 48° NW 21:39:44 10° NNE
Resurs 01 Rocket 3.8 21:41:00 23° WNW 21:41:00 23° WNW 21:43:40 10° NW
ATLAS 2AS CENTAUR R/B 4.2 22:08:19 10° W 22:15:38 38° NNW 22:22:46 10° NE
ATLAS 3B R/B 4.3 22:12:17 10° WNW 22:17:06 24° WSW 22:17:06 24° WSW
